KE9LZ Weather Reports


Display with metric or nautical units.
time (UTC)temp
F
wind
direction
speed
MPH
gust
MPH
rain 1hr
in
rain 24hr
in
rain mn
in
humidity
%
barometer
mb
20260904140004 68 303 2.0 3.0 0.00 1.59 1.03 99 1016.9
20260904135003 68 280 1.0 5.0 0.00 1.59 1.03 99 1016.5
20260904134004 68 177 2.0 8.0 0.00 1.59 1.03 99 1017.0
20260904133003 68 182 3.0 12.0 0.00 1.59 1.03 99 1017.5
20260904132004 68 182 3.0 8.0 0.00 1.59 1.03 99 1017.7
20260904131004 68 177 2.0 7.0 0.00 1.59 1.03 99 1017.5
20260904130004 68 197 2.0 7.0 0.00 1.59 1.03 99 1017.6
20260904125003 68 208 3.0 13.0 0.00 1.59 1.03 99 1017.3
20260904124004 68 173 3.0 6.0 0.00 1.59 1.03 99 1017.0
20260904123004 68 149 4.0 10.0 0.00 1.59 1.03 99 1016.7
20260904122004 67 174 4.0 7.0 0.01 1.59 1.03 99 1016.6
20260904121004 68 166 5.0 9.0 0.01 1.59 1.03 99 1016.7
20260904120004 68 134 4.0 8.0 0.02 1.59 1.03 99 1017.1
20260904115004 68 171 4.0 9.0 0.07 1.59 1.03 99 1016.9
20260904114004 68 177 4.0 10.0 0.21 1.59 1.03 99 1016.3
20260904113004 68 127 4.0 7.0 0.39 1.59 1.02 99 1016.5
20260904112004 68 152 5.0 14.0 0.39 1.59 1.02 99 1017.1
20260904111004 68 169 4.0 8.0 0.39 1.58 1.02 99 1016.9
20260904110005 69 122 3.0 6.0 0.47 1.58 1.01 99 1017.0
20260904105003 69 129 2.0 7.0 0.45 1.52 0.95 99 1016.8
20260904104005 69 178 2.0 7.0 0.39 1.39 0.82 99 1017.3
20260904102004 69 202 2.0 7.0 0.29 1.20 0.63 99 1016.9
20260904101004 69 149 3.0 6.0 0.31 1.19 0.63 99 1016.2
20260904100004 69 109 1.0 3.0 0.27 1.11 0.54 99 1016.9
20260904094004 69 205 2.0 5.0 0.22 1.00 0.43 99 1017.4
20260904093004 69 313 1.0 6.0 0.17 0.92 0.35 99 1017.8
20260904091004 69 59 1.0 2.0 0.13 0.88 0.31 99 1017.0
20260904090004 69 90 2.0 3.0 0.09 0.84 0.28 99 1017.2
20260904085004 69 99 2.0 5.0 0.07 0.82 0.25 99 1016.9
20260904084004 69 75 1.0 3.0 0.04 0.78 0.22 99 1017.5
20260904083003 69 6 2.0 5.0 0.01 0.75 0.18 99 1017.4
20260904082004 69 34 2.0 3.0 0.02 0.75 0.18 99 1017.3
20260904081003 69 24 2.0 5.0 0.02 0.75 0.18 99 1016.3
20260904080004 69 52 2.0 3.0 0.04 0.75 0.18 99 1015.8
20260904075004 69 71 1.0 5.0 0.18 0.75 0.18 99 1015.5
20260904074004 69 39 2.0 3.0 0.18 0.74 0.18 99 1015.6
20260904073004 69 103 2.0 5.0 0.17 0.74 0.17 99 1017.0
20260904072004 69 12 1.0 5.0 0.17 0.73 0.17 99 1017.2
20260904071004 69 20 3.0 10.0 0.16 0.72 0.16 99 1016.9
20260904070004 69 333 5.0 10.0 0.14 0.71 0.14 99 1017.2
20260904065004 69 296 4.0 8.0 0.00 0.57 0.00 99 1017.0
20260904064005 69 320 2.0 3.0 0.00 0.57 0.00 99 1016.5
20260904063004 69 88 2.0 3.0 0.00 0.57 0.00 99 1015.8
20260904062004 69 260 1.0 3.0 0.00 0.57 0.00 99 1016.2
20260904061004 68 121 1.0 5.0 0.00 0.57 0.00 99 1016.0
20260904060005 69 77 2.0 5.0 0.00 0.57 0.00 99 1016.4
20260904054004 68 84 2.0 5.0 0.00 0.57 0.00 99 1016.2
20260904052003 68 102 2.0 6.0 0.02 0.57 0.00 99 1016.9
20260904051003 68 60 2.0 5.0 0.02 0.57 0.00 99 1017.0
20260904050004 68 83 2.0 6.0 0.02 0.57 0.00 99 1017.3
20260904045004 68 139 2.0 3.0 0.02 0.57 0.57 99 1018.0
20260904044004 68 96 2.0 5.0 0.01 0.56 0.56 99 1017.7
20260904043005 68 134 2.0 5.0 0.00 0.55 0.55 99 1019.1
20260904042003 68 295 4.0 6.0 0.00 0.55 0.55 99 1019.5
20260904041004 68 129 2.0 3.0 0.00 0.55 0.55 99 1018.3
20260904040004 68 84 1.0 3.0 0.02 0.55 0.55 99 1018.3
20260904035004 68 32 1.0 5.0 0.04 0.55 0.55 99 1018.5
20260904034003 68 61 2.0 7.0 0.06 0.55 0.55 99 1017.8
20260904033004 68 76 1.0 6.0 0.07 0.55 0.55 99 1017.8
20260904032004 69 75 2.0 6.0 0.07 0.55 0.55 99 1017.8
20260904031004 69 88 3.0 8.0 0.07 0.55 0.55 99 1017.7
20260904030005 69 109 4.0 6.0 0.06 0.54 0.54 98 1018.1
20260904025004 70 111 3.0 5.0 0.04 0.52 0.52 96 1019.0
20260904024005 70 107 2.0 2.0 0.02 0.50 0.50 96 1019.4
20260904023004 70 139 1.0 2.0 0.00 0.48 0.48 95 1019.3
20260904022004 70 42 1.0 5.0 0.00 0.48 0.48 95 1019.1
20260904021004 70 71 1.0 3.0 0.00 0.48 0.48 95 1018.8
20260904015004 71 69 2.0 5.0 0.00 0.48 0.48 95 1018.3
20260904014004 71 108 2.0 5.0 0.00 0.48 0.48 95 1017.9
20260904013003 71 105 2.0 3.0 0.00 0.48 0.48 95 1017.9
20260904012004 71 100 3.0 7.0 0.00 0.48 0.48 95 1017.4
20260904011004 72 74 1.0 2.0 0.00 0.48 0.48 95 1017.3
20260904010003 72 111 2.0 3.0 0.00 0.48 0.48 95 1017.3
20260904005003 72 80 1.0 3.0 0.00 0.48 0.48 94 1017.0
20260904004002 72 101 1.0 5.0 0.00 0.48 0.48 94 1017.1
20260904003003 72 67 2.0 5.0 0.00 0.48 0.48 94 1017.3
20260904002003 73 25 2.0 5.0 0.00 0.48 0.48 94 1017.2
20260904001003 73 19 2.0 5.0 0.00 0.48 0.48 93 1017.4
20260904000003 73 76 2.0 3.0 0.00 0.48 0.48 92 1017.3
20260903235002 73 50 1.0 7.0 0.00 0.48 0.48 91 1017.1
20260903234002 73 67 2.0 5.0 0.00 0.48 0.48 91 1016.9
20260903232002 74 66 2.0 7.0 0.00 0.48 0.48 91 1017.1
20260903231002 74 335 3.0 7.0 0.00 0.48 0.48 90 1017.5
20260903230004 74 29 3.0 9.0 0.00 0.48 0.48 90 1017.2
20260903225003 75 9 5.0 9.0 0.00 0.48 0.48 89 1016.9
20260903221003 76 5 5.0 7.0 0.00 0.48 0.48 87 1016.9
20260903215003 78 20 3.0 5.0 0.00 0.48 0.48 85 1016.6
20260903214003 79 28 2.0 5.0 0.00 0.48 0.48 84 1016.3
20260903213003 79 10 4.0 7.0 0.00 0.48 0.48 83 1016.1
20260903211003 80 30 2.0 8.0 0.00 0.48 0.48 83 1016.0
20260903210003 78 4 5.0 8.0 0.00 0.48 0.48 86 1016.4
20260903205003 77 359 4.0 9.0 0.00 0.48 0.48 87 1016.5
20260903204003 78 5 3.0 9.0 0.00 0.48 0.48 87 1016.5
20260903203003 79 7 5.0 7.0 0.00 0.48 0.48 85 1016.8
20260903202003 80 9 5.0 9.0 0.00 0.48 0.48 82 1016.6
20260903201003 81 15 3.0 7.0 0.00 0.48 0.48 78 1016.6
20260903200004 79 316 3.0 6.0 0.00 0.48 0.48 80 1017.1
20260903195002 79 101 2.0 5.0 0.00 0.48 0.48 79 1017.1
20260903193003 79 220 3.0 8.0 0.00 0.48 0.48 81 1017.0
20260903192003 80 66 2.0 7.0 0.00 0.48 0.48 83 1016.9
20260903191002 80 204 4.0 5.0 0.00 0.48 0.48 82 1017.0
20260903190002 78 191 2.0 7.0 0.00 0.48 0.48 85 1017.1
20260903183003 76 115 1.0 5.0 0.00 0.48 0.48 89 1017.1
20260903182003 76 71 2.0 5.0 0.00 0.48 0.48 89 1017.1
20260903180003 75 205 2.0 3.0 0.00 0.48 0.48 91 1017.9
20260903175002 73 112 1.0 3.0 0.00 0.48 0.48 96 1017.6
20260903174003 73 73 1.0 2.0 0.00 0.48 0.48 96 1018.1
20260903173003 73 80 1.0 6.0 0.00 0.48 0.48 97 1017.6
20260903172003 72 48 1.0 5.0 0.00 0.48 0.48 98 1017.0
20260903171003 72 10 5.0 9.0 0.00 0.48 0.48 99 1017.0
20260903170004 72 18 1.0 5.0 0.00 0.48 0.48 99 1016.7
20260903165003 71 82 1.0 5.0 0.04 0.48 0.48 99 1016.4
20260903164003 71 86 2.0 6.0 0.22 0.48 0.48 99 1016.9
20260903163003 70 21 2.0 8.0 0.27 0.48 0.48 99 1017.2
20260903162003 70 35 2.0 6.0 0.27 0.48 0.48 99 1017.4
20260903161003 69 37 2.0 5.0 0.31 0.48 0.48 99 1017.7
20260903160002 69 335 1.0 5.0 0.41 0.48 0.48 99 1017.7
20260903155002 68 97 2.0 6.0 0.44 0.44 0.44 99 1018.2
20260903154002 69 135 2.0 5.0 0.25 0.25 0.25 99 1018.3
20260903153003 69 304 3.0 6.0 0.20 0.20 0.20 99 1018.2
20260903152003 69 324 3.0 5.0 0.20 0.20 0.20 98 1017.3
20260903151002 69 89 3.0 7.0 0.17 0.17 0.17 97 1017.6
20260903150003 71 246 1.0 3.0 0.07 0.07 0.07 94 1017.0
20260903145002 72 280 2.0 3.0 0.00 0.00 0.00 89 1016.9
20260903144003 72 85 2.0 5.0 0.00 0.00 0.00 89 1016.4
20260903142003 72 126 1.0 2.0 0.00 0.00 0.00 86 1016.8